This is the latest recevied weather packets stored in our database for station/object N8QQQ. If no packets are shown the sender has not sent any weather packets the latest 10 day(s).
| Time | Temp. | Humidity | Pressure | Rain* | Wind** | Luminosity | Snow |
|---|---|---|---|---|---|---|---|
| 1777985167 | 1.11° C | 88% | 1003.4 hPa | 0 mm | - | 100 W/m² | - |
| 1777984864 | 0.56° C | 91% | 1003.4 hPa | 0 mm | - | 48 W/m² | - |
| 1777984560 | 1.11° C | 91% | 1003.4 hPa | 0 mm | - | 24 W/m² | - |
| 1777984256 | 1.11° C | 91% | 1003.6 hPa | 0 mm | - | 27 W/m² | - |
| 1777983953 | 0.56° C | 93% | 1003.2 hPa | 0 mm | - | 49 W/m² | - |
| 1777983651 | 0.56° C | 94% | 1003.4 hPa | 0 mm | - | 30 W/m² | - |
| 1777983347 | 0.56° C | 93% | 1003.2 hPa | 0 mm | - | 20 W/m² | - |
| 1777983044 | 0.56° C | 92% | 1003.4 hPa | 0 mm | - | 15 W/m² | - |
| 1777982740 | 0.56° C | 91% | 1003.5 hPa | 0 mm | - | 8 W/m² | - |
| 1777982436 | 1.11° C | 88% | 1003.4 hPa | 0 mm | - | 9 W/m² | - |
| 1777982130 | 1.67° C | 84% | 1003.3 hPa | 0 mm | - | 10 W/m² | - |
| 1777981829 | 2.78° C | 75% | 1003.1 hPa | 0 mm | - | 10 W/m² | - |
| 1777981525 | 2.78° C | 75% | 1002.9 hPa | 0 mm | - | 15 W/m² | - |
| 1777981221 | 2.22° C | 74% | 1002.8 hPa | 0 mm | - | 15 W/m² | - |
| 1777980918 | 2.22° C | 75% | 1002.9 hPa | 0 mm | - | 16 W/m² | - |
| 1777980615 | 2.22° C | 74% | 1002.8 hPa | 0 mm | - | 15 W/m² | - |
| 1777980311 | 2.22° C | 76% | 1002.8 hPa | 0 mm | - | 15 W/m² | - |
| 1777980009 | 2.22° C | 76% | 1002.7 hPa | 0 mm | - | 11 W/m² | - |
| 1777979702 | 2.22° C | 76% | 1002.8 hPa | 0 mm | - | 8 W/m² | - |
| 1777979399 | 2.22° C | 76% | 1002.7 hPa | 0 mm | - | 6 W/m² | - |
| 1777979095 | 2.22° C | 76% | 1002.7 hPa | 0 mm | - | 3 W/m² | - |
| 1777978792 | 2.22° C | 76% | 1002.4 hPa | 0 mm | - | 4 W/m² | - |
| 1777978489 | 2.22° C | 75% | 1002.5 hPa | 0 mm | - | 3 W/m² | - |
| 1777978185 | 1.67° C | 75% | 1002.5 hPa | 0 mm | - | 2 W/m² | - |
| 1777977882 | 1.67° C | 75% | 1002.4 hPa | 0 mm | - | 2 W/m² | - |
* Rain latest hour (hover to see other rain measurements)
** Current wind speed in m/s (hover to see current wind gust speed)